Simultaneous Nadir Overpasses (SNOs) Predictions

Prediction of SNOs between FY3D and TERRA Satellite Orbit:

Table of predicted SNOs for the next 14.0 days since TLE Epoch: 4/6/2024
Index Date (FY3D) Time (FY3D) Lat,Lon (FY3D) SZA (FY3D ) Date (TERRA) Time (TERRA) Lat,Lon (TERRA) SZA (TERRA ) Distance(km) Time Diff (sec)
1 04/08/2024 03:27:08 -75.33, -51.80 112.12 04/08/2024 03:28:01 -75.34, -51.67 112.11 3.75 53
2 04/08/2024 04:17:53 75.25, 115.77 67.79 04/08/2024 04:17:24 75.24, 115.74 67.79 1.06 29
3 04/10/2024 15:30:55 75.31, -52.63 66.94 04/10/2024 15:31:03 75.29, -52.58 66.92 2.31 8
4 04/10/2024 16:21:37 -75.21, 114.99 113.18 04/10/2024 16:20:26 -75.23, 114.90 113.16 3.07 71
5 04/13/2024 02:43:56 75.34, 139.09 66.06 04/13/2024 02:44:42 75.32, 139.04 66.05 1.89 46
6 04/13/2024 03:34:39 -75.28, -53.43 114.01 04/13/2024 03:34:05 -75.26, -53.47 114.03 2.68 34
7 04/15/2024 13:57:06 75.78, -30.57 65.63 04/15/2024 13:58:14 75.68, -28.41 65.53 60.21 68
8 04/15/2024 14:47:40 -75.31, 138.28 114.86 04/15/2024 14:47:43 -75.32, 138.25 114.85 1.53 3
9 04/15/2024 15:38:20 75.00, -53.46 64.82 04/15/2024 15:37:10 75.02, -54.89 64.83 41.07 70
10 04/18/2024 02:00:41 -75.34, -30.03 115.70 04/18/2024 02:01:21 -75.36, -30.09 115.68 2.61 40
11 04/18/2024 02:51:27 75.32, 137.36 64.27 04/18/2024 02:50:43 75.31, 137.43 64.26 2.06 44



Historial Predications of SNOs between FY3D and TERRA
